Location: Ailingen
(47.6833°N, 9.5000°E)
Time: 14:07:12
(UTC+00:00)

ARIANE 5 R/B - Visible Passes

Search period start: 14 February 2026 00:00
Search period end: 24 February 2026 00:00
Orbit: 746 x 793 km, 98.8° (Epoch: 13 February)

Date Brightness Start Highest point End Pass type
(mag) Time Alt. Az. Time Alt. Az. Time Alt. Az.
14 Feb 4.7 05:25:52 10° NE 05:30:14 30° E 05:34:35 10° SSE visible
14 Feb 5.4 18:24:46 10° SW 18:28:21 19° W 18:31:56 10° NW visible
15 Feb 5.8 04:51:29 10° NE 04:54:14 15° E 04:57:01 10° ESE visible
15 Feb 4.2 17:47:43 10° SSW 17:52:26 38° W 17:57:09 10° NNW visible
16 Feb 2.8 17:11:37 10° S 17:16:43 77° WSW 17:21:47 10° NNW visible
16 Feb 6.0 18:55:33 10° W 18:56:34 11° W 18:57:36 10° WNW visible
17 Feb 5.0 05:18:16 10° NE 05:22:24 25° E 05:26:30 10° SSE visible
17 Feb 5.2 18:16:35 10° SW 18:20:30 22° W 18:24:25 10° NW visible
18 Feb 5.9 04:44:19 10° ENE 04:46:21 12° E 04:48:24 10° ESE visible
18 Feb 3.8 17:39:48 10° S 17:44:38 44° W 17:49:28 10° NNW visible
19 Feb 3.9 05:45:39 10° NNE 05:50:25 44° E 05:55:11 10° S visible
19 Feb 5.8 18:46:30 10° WSW 18:48:41 13° W 18:50:52 10° WNW visible
20 Feb 5.3 05:10:43 10° NE 05:14:33 22° E 05:18:22 10° SE visible
20 Feb 4.9 18:08:28 10° SSW 18:12:40 26° W 18:16:51 10° NW visible
21 Feb 6.2 04:37:54 10° E 04:38:28 10° E 04:39:01 10° E visible
21 Feb 3.5 17:31:54 10° S 17:36:50 52° W 17:41:45 10° NNW visible
22 Feb 4.3 05:37:58 10° NNE 05:42:36 37° E 05:47:13 10° SSE visible
22 Feb 5.7 18:37:56 10° SW 18:40:48 15° W 18:43:40 10° NW visible
23 Feb 5.6 05:03:13 10° NE 05:06:41 19° E 05:10:09 10° SE visible
23 Feb 4.6 18:00:25 10° SSW 18:04:50 30° W 18:09:15 10° NW visible
